Location: Newark
(43.0000°N, 1.6781°W)
Time: 20:46:35
(UTC+00:00)

SO-50 - Pass Details

Date: 10 December 2022
Orbit: 584 x 695 km, 64.6° (Epoch: 05 February)

Event Time Altitude Azimuth Distance (km) Brightness Sun altitude
Exits shadow 04:35:01 40° 56° (NE) 1,020 ? -30.5°
Drops below altitude 10° 04:38:15 10° 40° (NE) 2,152 ? -29.9°
Sets 04:40:38 0° 37° (NE) 3,078 ? -29.5°
